Benton Harbor, MI

9:49 AM EST on February 23, 2017 (GMT -0500)
Southwest Michigan Regional

Weather History for KBEH - November, 2013

Change the Weather History Date:

Saturday, November 9, 2013

  Actual Average Record
Temperature  
Mean Temperature 50 °F -  
Max Temperature 55 °F 52 °F 72 °F (1999)
Min Temperature 44 °F 34 °F 13 °F (1991)
Degree Days  
Heating Degree Days 16    
Moisture  
Dew Point 37 °F    
Average Humidity 63    
Maximum Humidity 74    
Minimum Humidity 50    
Precipitation  
Precipitation 0.00 in - - ()
Sea Level Pressure  
Sea Level Pressure 29.93 in    
Wind  
Wind Speed 16 mph (WSW)    
Max Wind Speed 26 mph    
Max Gust Speed 36 mph    
Visibility 10 miles    
Events      
Averages and records for this station are not official NWS values.
T = Trace of Precipitation, MM = Missing Value Source: NWS Daily Summary

Daily Weather History Graph

Daily Weather History Graph

Search for Another Location

Airport or City:

Trip Planner

Search our weather history database for the weather conditions in past years. The results will help you decide how hot, cold, wet, or windy it might be!

Date:

Astronomy

Nov. 09, 2013 Rise Set
Actual Time 7:28 AM EST 5:29 PM EST
Civil Twilight 6:59 AM EST 5:59 PM EST
Nautical Twilight 6:25 AM EST 6:32 PM EST
Astronomical Twilight 5:52 AM EST 7:05 PM EST
Moon 1:04 PM EST (11/9) No Moon Set
Length of Visible Light 11h 00m
Length of Day
10h 00m
Waxing Crescent, 44% of the Moon is Illuminated
Nov 9
Waxing Crescent
Nov 10
First Quarter
Nov 17
Full
Nov 25
Last Quarter
Dec 2
New

Hourly Weather History & Observations

Time (EST) Temp. Windchill Dew Point Humidity Pressure Visibility Wind Dir Wind Speed Gust Speed Precip Events Conditions
12:53 AM 44.1 °F 38.6 °F 30.0 °F 58% 30.05 in 10.0 mi South 10.4 mph - N/A   Partly Cloudy
1:53 AM 46.0 °F 39.6 °F 28.9 °F 51% 30.00 in 10.0 mi South 15.0 mph 26.5 mph N/A   Overcast
2:53 AM 46.9 °F - 28.9 °F 50% 29.96 in 10.0 mi South 20.7 mph 31.1 mph N/A   Partly Cloudy
3:53 AM 46.0 °F 39.3 °F 28.9 °F 51% 29.92 in 10.0 mi South 16.1 mph 25.3 mph N/A   Clear
4:53 AM 46.0 °F 39.3 °F 30.9 °F 56% 29.91 in 10.0 mi South 16.1 mph 23.0 mph N/A   Clear
5:53 AM 46.0 °F 40.2 °F 32.0 °F 58% 29.90 in 10.0 mi SSW 12.7 mph 23.0 mph N/A   Clear
6:53 AM 46.0 °F 40.6 °F 33.1 °F 61% 29.89 in 10.0 mi SSW 11.5 mph 19.6 mph N/A   Clear
7:53 AM 46.0 °F 39.3 °F 35.1 °F 66% 29.89 in 10.0 mi SSW 16.1 mph 23.0 mph N/A   Clear
8:53 AM 48.9 °F - 37.0 °F 64% 29.89 in 10.0 mi SW 23.0 mph 33.4 mph N/A   Clear
9:53 AM 52.0 °F - 39.9 °F 63% 29.88 in 10.0 mi SW 21.9 mph 33.4 mph N/A   Clear
10:53 AM 52.0 °F - 41.0 °F 66% 29.88 in 10.0 mi WSW 20.7 mph 29.9 mph N/A   Scattered Clouds
11:53 AM 53.1 °F - 41.0 °F 64% 29.89 in 10.0 mi SW 26.5 mph 35.7 mph N/A   Scattered Clouds
12:53 PM 54.0 °F - 42.1 °F 64% 29.88 in 10.0 mi WSW 25.3 mph 32.2 mph N/A   Clear
1:53 PM 55.0 °F - 44.1 °F 67% 29.88 in 10.0 mi West 17.3 mph 26.5 mph N/A   Mostly Cloudy
2:53 PM 53.1 °F - 43.0 °F 69% 29.88 in 10.0 mi WSW 17.3 mph 24.2 mph N/A   Overcast
3:53 PM 54.0 °F - 44.1 °F 69% 29.90 in 10.0 mi West 16.1 mph 21.9 mph N/A   Overcast
4:53 PM 53.1 °F - 42.1 °F 66% 29.91 in 10.0 mi West 17.3 mph - N/A   Overcast
5:53 PM 52.0 °F - 43.0 °F 71% 29.93 in 10.0 mi West 18.4 mph 26.5 mph N/A   Overcast
6:53 PM 50.0 °F - 42.1 °F 74% 29.96 in 10.0 mi West 12.7 mph 20.7 mph N/A   Partly Cloudy
7:53 PM 50.0 °F - 42.1 °F 74% 29.98 in 10.0 mi West 16.1 mph 23.0 mph N/A   Clear
8:53 PM 50.0 °F - 39.9 °F 68% 30.00 in 10.0 mi WNW 15.0 mph 31.1 mph N/A   Mostly Cloudy
9:53 PM 48.9 °F - 39.9 °F 71% 30.01 in 10.0 mi West 15.0 mph 23.0 mph N/A   Overcast
10:53 PM 46.9 °F - 35.1 °F 63% 30.02 in 10.0 mi WNW 20.7 mph 33.4 mph N/A   Scattered Clouds
11:53 PM 46.0 °F 38.3 °F 30.9 °F 56% 30.03 in 10.0 mi WNW 20.7 mph 28.8 mph N/A   Overcast